Location: Asheville, NC
(35.6000°N, 82.5500°W)
Time: 00:25:25
(UTC-04:00)

YUBILEINY - Pass Details

Date: 13 March 2018
Orbit: 1479 x 1508 km, 82.5° (Epoch: 18 June)

Event Time Altitude Azimuth Distance (km) Brightness Sun altitude
Rises 04:48:59 0° 5° (N) 4,614 ? -35.4°
Reaches altitude 10° 04:52:43 10° 19° (NNE) 3,635 ? -34.8°
Maximum altitude 04:59:23 24° 70° (ENE) 2,719 ? -33.5°
Drops below altitude 10° 05:06:02 10° 120° (ESE) 3,639 ? -32.3°
Sets 05:09:42 0° 134° (SE) 4,621 ? -31.6°
